TimeCDT,TemperatureF,Dew PointF,Humidity,Sea Level PressureIn,VisibilityMPH,Wind Direction,Wind SpeedMPH,Gust SpeedMPH,PrecipitationIn,Events,Conditions,WindDirDegrees,DateUTC
12:08 AM,71.6,71.6,100,30.13,10.0,ENE,3.5,-,N/A,,Clear,60,2013-07-16 05:08:00
12:18 AM,71.6,71.6,100,30.13,8.0,East,3.5,-,N/A,,Clear,80,2013-07-16 05:18:00
12:28 AM,71.6,71.6,100,30.13,10.0,East,2.3,-,N/A,,Clear,90,2013-07-16 05:28:00
12:58 AM,71.4,71.2,99,30.13,10.0,East,1.2,-,N/A,,Clear,100,2013-07-16 05:58:00
1:18 AM,71.6,71.6,100,30.12,9.0,Calm,Calm,-,N/A,,Clear,0,2013-07-16 06:18:00
1:28 AM,71.6,71.6,100,30.12,10.0,Calm,Calm,-,N/A,,Clear,0,2013-07-16 06:28:00
1:58 AM,71.1,71.1,100,30.12,10.0,NE,3.5,-,N/A,,Clear,50,2013-07-16 06:58:00
2:58 AM,72.0,71.4,98,30.11,10.0,Calm,Calm,-,N/A,,Clear,0,2013-07-16 07:58:00
3:58 AM,71.1,70.5,98,30.12,10.0,ENE,4.6,-,N/A,,Scattered Clouds,60,2013-07-16 08:58:00
4:58 AM,71.4,70.9,98,30.12,10.0,ENE,3.5,-,N/A,,Partly Cloudy,60,2013-07-16 09:58:00
5:58 AM,71.2,70.3,97,30.14,10.0,East,3.5,-,N/A,,Scattered Clouds,80,2013-07-16 10:58:00
6:58 AM,71.8,70.9,97,30.16,10.0,ENE,4.6,-,N/A,,Mostly Cloudy,60,2013-07-16 11:58:00
7:58 AM,73.6,71.1,92,30.17,10.0,ENE,3.5,-,N/A,,Scattered Clouds,70,2013-07-16 12:58:00
8:58 AM,75.9,71.4,86,30.18,10.0,ENE,2.3,-,N/A,,Partly Cloudy,60,2013-07-16 13:58:00
9:04 AM,77.0,71.6,83,30.17,10.0,ENE,3.5,-,N/A,,Partly Cloudy,60,2013-07-16 14:04:00
9:58 AM,80.4,72.9,78,30.18,10.0,NE,5.8,-,N/A,,Scattered Clouds,40,2013-07-16 14:58:00
10:58 AM,85.1,72.3,65,30.18,10.0,Variable,6.9,-,N/A,,Scattered Clouds,0,2013-07-16 15:58:00
11:58 AM,86.7,71.4,60,30.18,10.0,East,10.4,-,N/A,,Scattered Clouds,100,2013-07-16 16:58:00
12:58 PM,89.2,71.4,56,30.17,10.0,East,6.9,-,N/A,,Scattered Clouds,80,2013-07-16 17:58:00
1:58 PM,89.4,70.5,54,30.15,10.0,East,10.4,-,N/A,,Partly Cloudy,90,2013-07-16 18:58:00
2:58 PM,91.2,70.0,50,30.13,10.0,ESE,15.0,17.3,N/A,,Scattered Clouds,110,2013-07-16 19:58:00
3:58 PM,91.4,69.8,49,30.12,10.0,ESE,11.5,18.4,N/A,,Clear,120,2013-07-16 20:58:00
4:58 PM,91.2,68.5,47,30.09,10.0,ESE,11.5,18.4,N/A,,Clear,110,2013-07-16 21:58:00
5:58 PM,91.4,70.5,50,30.09,10.0,East,11.5,-,N/A,,Partly Cloudy,90,2013-07-16 22:58:00
6:58 PM,89.1,68.5,51,30.12,10.0,East,12.7,-,N/A,,Clear,90,2013-07-16 23:58:00
7:58 PM,86.2,69.6,58,30.13,10.0,East,12.7,-,N/A,,Clear,90,2013-07-17 00:58:00
8:58 PM,83.1,70.5,66,30.16,10.0,East,6.9,-,N/A,,Clear,80,2013-07-17 01:58:00
9:58 PM,80.8,71.1,72,30.18,10.0,East,4.6,-,N/A,,Clear,100,2013-07-17 02:58:00
10:58 PM,79.3,71.6,77,30.19,10.0,ESE,4.6,-,N/A,,Clear,120,2013-07-17 03:58:00
11:58 PM,78.8,72.0,79,30.19,10.0,East,3.5,-,N/A,,Partly Cloudy,80,2013-07-17 04:58:00